STARLINK-2726 (48662 NORAD) Tracking and Keplerian Element Data

This shows tracking and keplerian element data for the satellite.

Feedback or suggestion? Click here.




ElementValue
Catalog48662
NameSTARLINK-2726
Epoch Orbit365
Epoch Day210.91668981
Epoch Year2021
RAAN110.776
Inclination53.0481
Eccentricity0.0001493
Argument of Perigee71.6793
Mean Anonmoly166.0791
Mean Motion15.21814406
Decay Rate-0.00931107
L11 48662U 21044AA 21210.91668981 -.00931107 00000-0 -43719-1 0 9999
L22 48662 53.0481 110.7760 0001493 71.6793 166.0791 15.21814406 3657

Live tracking and technical data element details for STARLINK-2726 (NORAD 48662). STARLINK-2726 can be tracked NOW for your location showing map with azimuth and elevation plus other details from your city location.

Track the satellite on the map from your city or location and see movement details for azimuth, elevation, latitude, longitude, range, height, and movement on the map or in text.







IsCatalogInMostPopularTable: catalog: 48662, numindb: 12
Update: records affected: 1



GetName: 48662 STARLINK-2726

Hit Count: updated at: Sat, 31 Jul 2021 15:52:37 GMT